Regional Weather Roundup
Issued by NWS

Home | Current Version | Previous Version | Graphics & Text | Print | Product List | Glossary On
Versions: 1 2 3 4 5 6 7 8 9 10 11 12 13 14 15 16 17 18 19 20 21 22 23 24 25 26 27 28 29 30 31 32 33 34 35 36 37 38 39 40 41 42 43 44 45 46 47 48 49 50
000
ASUS43 KMKX 251821
RWRWI

WISCONSIN REGIONAL WEATHER ROUNDUP
NATIONAL WEATHER SERVICE MILWAUKEE/SULLIVAN WI
100 PM CDT MON JUL 25 2016

NOTE: "FAIR" INDICATES FEW OR NO CLOUDS BELOW 12,000 FEET WITH NO
SIGNIFICANT WEATHER AND/OR OBSTRUCTIONS TO VISIBILITY.

WIZ001-002-006>008-014>016-023>028-251900-
NORTHWEST WISCONSIN

CITY           SKY/WX    TMP DP  RH WIND       PRES   REMARKS
SUPERIOR ARPT  SUNNY     81  62  51 NW8       30.00F HX  82
6HR MIN TEMP:  64; 6HR MAX TEMP:  81;

ASHLAND        MOSUNNY   82  61  48 W10       30.01F HX  83
6HR MIN TEMP:  65; 6HR MAX TEMP:  82;

HAYWARD        MOSUNNY   79  57  46 VRB7      30.04F HX  80
6HR MIN TEMP:  62; 6HR MAX TEMP:  79;

SIREN          MOSUNNY   81  59  47 N9        30.05  HX  81
CUMBERLAND     PTSUNNY   77  59  53 NW9       30.06S
RICE LAKE      MOSUNNY   78  60  53 W5        30.07S
6HR MIN TEMP:  63; 6HR MAX TEMP:  78;

CHETEK         SUNNY     80  61  52 W8        30.05S HX  81
6HR MIN TEMP:  65; 6HR MAX TEMP:  80;

LADYSMITH      SUNNY     79  58  48 NW13      30.06S HX  80
6HR MIN TEMP:  64; 6HR MAX TEMP:  79;

EAU CLAIRE     SUNNY     82  61  48 NW9       30.04S HX  83
6HR MIN TEMP:  65; 6HR MAX TEMP:  82;

MENOMONIE      SUNNY     83  60  46 NW8       30.05F HX  83
6HR MIN TEMP:  67; 6HR MAX TEMP:  83;

NEW RICHMOND   SUNNY     81  59  47 W8        30.06S HX  81
6HR MIN TEMP:  65; 6HR MAX TEMP:  81;

OSCEOLA        SUNNY     81  62  52 NW8       30.08S HX  82
6HR MIN TEMP:  64; 6HR MAX TEMP:  81;

$$

WIZ003>005-009-010-017-018-251900-
NORTH CENTRAL WISCONSIN

CITY           SKY/WX    TMP DP  RH WIND       PRES   REMARKS
MANITOWISH WTR MOSUNNY   76  58  53 NW10G20   30.03S
6HR MIN TEMP:  64; 6HR MAX TEMP:  76;

ARBOR VITAE    MOSUNNY   77  58  52 W9G17     30.03S
6HR MIN TEMP:  65; 6HR MAX TEMP:  77;

WOODRUFF       MOSUNNY   77  58  52 W9G17     30.03S
6HR MIN TEMP:  65; 6HR MAX TEMP:  77;

RHINELANDER    MOSUNNY   78  57  48 NW9       30.04S
6HR MIN TEMP:  65; 6HR MAX TEMP:  79;

EAGLE RIVER    MOSUNNY   76  55  47 NW6       30.02S
6HR MIN TEMP:  64; 6HR MAX TEMP:  77;

LAND O LAKES   MOSUNNY   77  55  46 W9        30.03S
6HR MIN TEMP:  65; 6HR MAX TEMP:  77;

PHILLIPS       MOSUNNY   75  61  60 NW6       30.04S
6HR MIN TEMP:  62; 6HR MAX TEMP:  76;

TOMAHAWK       PTSUNNY   76  58  53 NW8G16    30.04S
6HR MIN TEMP:  61; 6HR MAX TEMP:  77;

MEDFORD        SUNNY     76  61  59 W10G17    30.05S
6HR MIN TEMP:  62; 6HR MAX TEMP:  76;

MERRILL        MOSUNNY   78  61  55 NW13      30.04S HX  80
6HR MIN TEMP:  63; 6HR MAX TEMP:  79;

$$

WIZ029-030-035-036-043>047-251900-
CENTRAL WISCONSIN

CITY           SKY/WX    TMP DP  RH WIND       PRES   REMARKS
WAUSAU         PTSUNNY   81  58  45 NW13      30.02R HX  81
6HR MIN TEMP:  65; 6HR MAX TEMP:  81;

MOSINEE        MOSUNNY   79  61  53 W14G20    30.04S HX  80
MARSHFIELD     SUNNY     80  61  52 W13       30.04S HX  81
6HR MIN TEMP:  65; 6HR MAX TEMP:  81;

STEVENS POINT  MOSUNNY   78  60  53 W10G18    30.03S
6HR MIN TEMP:  65; 6HR MAX TEMP:  78;

WAUPACA        SUNNY     85  60  42 W12       30.00F HX  84
6HR MIN TEMP:  69; 6HR MAX TEMP:  85;

WAUTOMA        PTSUNNY   82  64  54 W14       30.02S HX  83
6HR MIN TEMP:  68; 6HR MAX TEMP:  82;

WISC RAPIDS    SUNNY     83  59  44 N16G23    30.04S HX  83
6HR MIN TEMP:  66; 6HR MAX TEMP:  84;

CAMP DOUGLAS   MOSUNNY   81  66  61 NW8       30.03F HX  83
$$

WIZ011>013-019>022-031-037>040-048>050-251900-
NORTHEAST WISCONSIN

CITY           SKY/WX    TMP DP  RH WIND       PRES   REMARKS
ANTIGO         MOSUNNY   77  59  53 NW15G22   30.03S
6HR MIN TEMP:  63; 6HR MAX TEMP:  77;

SHAWANO        SUNNY     82  61  47 W6        29.99S HX  83
6HR MIN TEMP:  68; 6HR MAX TEMP:  83;

OCONTO         SUNNY     82  60  47 NW12G17   29.95F HX  82
6HR MIN TEMP:  67; 6HR MAX TEMP:  82;

STURGEON BAY   SUNNY     82  63  52 W14       29.96S HX  83
GREEN BAY      SUNNY     81  68  64 W13G20    29.98R HX  84
6HR MIN TEMP:  68; 6HR MAX TEMP:  81;

MANITOWOC      SUNNY     81  62  52 NW12G20   29.98S HX  82
6HR MIN TEMP:  70; 6HR MAX TEMP:  81; 6HR PCP:  0.05;

APPLETON       MOSUNNY   81  61  50 W13G18    29.99S HX  81
CLINTONVILLE   SUNNY     81  55  41 NW12      29.99S HX  80
OSHKOSH        MOSUNNY   82  64  54 NW9       30.00S HX  83
6HR MIN TEMP:  69; 6HR MAX TEMP:  82;

$$

WIZ032>034-041-042-053>061-251900-
SOUTHWEST WISCONSIN

CITY           SKY/WX    TMP DP  RH WIND       PRES   REMARKS
LA CROSSE      SUNNY     82  63  52 W9        30.04S HX  83
6HR MIN TEMP:  70; 6HR MAX TEMP:  83;

SPARTA         MOSUNNY   82  62  51 W9G16     30.05S HX  83
6HR MIN TEMP:  62; 6HR MAX TEMP:  82;

VIROQUA        MOSUNNY   80  63  56 NW9       30.07S HX  81
6HR MIN TEMP:  64; 6HR MAX TEMP:  80;

BOSCOBEL       SUNNY     86  62  44 NW8       30.04F HX  86
6HR MIN TEMP:  67; 6HR MAX TEMP:  86;

PRAIRIE DU CHI MOSUNNY   81  59  46 NW10G17   30.04S HX  82
6HR MIN TEMP:  67; 6HR MAX TEMP:  82;

PLATTEVILLE    SUNNY     80  65  59 NW10      30.05F HX  82
6HR MIN TEMP:  66; 6HR MAX TEMP:  80;

$$

WIZ056-057-062-063-064-067-068-251900-
SOUTH CENTRAL WISCONSIN

CITY           SKY/WX    TMP DP  RH WIND       PRES   REMARKS
REEDSBURG      SUNNY     81  65  58 NW7       30.03F HX  82
6HR MIN TEMP:  65; 6HR MAX TEMP:  81;

BARABOO/DELLS  MOSUNNY   79  61  52 NW9       30.04S HX  80
6HR MIN TEMP:  66; 6HR MAX TEMP:  80;

LONE ROCK      SUNNY     82  63  52 NW12      30.03F HX  83
6HR MIN TEMP:  68; 6HR MAX TEMP:  83;

MINERAL POINT  MOSUNNY   81  63  54 NW8       30.05F HX  82
MADISON        MOSUNNY   82  63  52 NW8       30.02F HX  83
6HR MIN TEMP:  71; 6HR MAX TEMP:  83;

MIDDLETON      MOSUNNY   83  64  52 NW10G16   30.03F HX  85
6HR MIN TEMP:  70; 6HR MAX TEMP:  83;

WATERTOWN      MOSUNNY   82  65  56 NW8       30.01F HX  84
6HR MIN TEMP:  69; 6HR MAX TEMP:  83;

MONROE         MOSUNNY   81  61  50 N9        30.04S HX  81
JANESVILLE     MOSUNNY   84  64  51 NW10      30.02R HX  86
$$

WIZ051-052-058>065-066-070>072-251900-
SOUTHEAST WISCONSIN

CITY           SKY/WX    TMP DP  RH WIND       PRES   REMARKS
MILWAUKEE      MOSUNNY   86  60  41 NW10      29.99S HX  86
6HR MIN TEMP:  75; 6HR MAX TEMP:  87;

WAUKESHA       SUNNY     81  61  50 W9        30.02S HX  81
MILWAUKEE/TIMM SUNNY     84  57  39 NW9G18    30.01S HX  83
RACINE         SUNNY     85  64  49 NE6       30.01S HX  86
6HR MIN TEMP:  73; 6HR MAX TEMP:  86;

BURLINGTON     SUNNY     83  65  53 NW7       30.01S HX  85
6HR MIN TEMP:  70; 6HR MAX TEMP:  83;

KENOSHA        SUNNY     84  64  50 NW13G20   30.00S HX  85
6HR MIN TEMP:  72; 6HR MAX TEMP:  85;

FOND DU LAC    MOSUNNY   83  64  52 NW12      30.00S HX  84
6HR MIN TEMP:  69; 6HR MAX TEMP:  83;

SHEBOYGAN      SUNNY     81  61  50 W15G22    29.99S HX  82
6HR MIN TEMP:  70; 6HR MAX TEMP:  82;

WEST BEND      MOSUNNY   81  63  54 NW13      30.01S HX  82
JUNEAU         PTSUNNY   79  65  62 W7        30.03S HX  81
6HR MIN TEMP:  67; 6HR MAX TEMP:  80;

$$

LSZ147-162-251900-
LAKE SUPERIOR

STATION/POSITION TIME  TEMP    WIND        PRES    WAVE
                       AIR SEA DIR/SP/G            HT/PER
                 (UTC) (F)     (DEG/KT/KT) (MB)    (FT/S)
W MID LAKE BUOY  1750   64 60  240/ 14/ 16 1014.0F   2/ 4
DEVILS ISLAND    1800   69     230/ 14/ 17 1014.9F
SAXON HARBOR     1700   78      CALM  /  3 1015.9
$$

LMZ867-665-643>646-251900-
LAKE MICHIGAN

STATION/POSITION TIME  TEMP    WIND        PRES    WAVE
                       AIR SEA DIR/SP/G            HT/PER
                 (UTC) (F)     (DEG/KT/KT) (MB)    (FT/S)
CHAMBERS ISLAND  1700   80     230/  2/  6 1013.9R
S GREEN BAY BUOY 1730   76 74  270/ 10/ 14   N/A
N MID LC1F1C2F2C3F3C4F4C5F5C6F6C7F7C8M1C9M2Ca!


USA.gov is the U.S. government's official web portal to all federal, state and local government web resources and services.